1509404400.56,9971,7.63,72358.8,-16.07,-27.29,-28.21,0,*51
1509404401.83,9972,7.63,72352.3,-16.09,-26.71,-25.61,0,*59
1509404403.04,9973,7.63,72362.3,-16.07,-22.03,-21.39,0,*5E
1509404404.29,9974,7.63,72370.0,-16.07,-20.35,-20.15,0,*51
1509404405.52,9975,7.63,72376.8,-16.07,-20.35,-20.43,0,*53
1509404406.73,9976,7.63,72388.3,-16.07,-20.05,-19.51,0,*5A
1509404407.94,9977,7.63,72390.8,-16.07,-20.93,-22.53,0,*5E
1509404409.18,9978,7.63,72388.5,-16.07,-21.53,-21.43,0,*5E
1509404410.41,9979,7.63,72402.5,-16.07,-22.21,-22.07,0,*5A
1509404411.63,9980,7.63,72376.5,-16.07,-21.13,-20.29,0,*50
1509404412.85,9981,7.63,72396.5,-16.05,-20.09,-19.47,0,*5B
1509404414.11,9982,7.63,72404.0,-16.05,-19.23,-19.17,0,*5F
1509404415.39,9983,7.63,72406.3,-16.05,-19.81,-19.65,0,*53
1509404416.62,9984,7.63,72418.3,-16.05,-20.89,-19.95,0,*59
1509404417.85,9985,7.63,72386.3,-16.05,-20.43,-18.83,0,*58
1509404419.09,9986,7.63,72402.0,-16.05,-18.41,-17.83,0,*5D
1509404420.35,9987,7.63,72396.5,-16.05,-18.11,-17.79,0,*5C
1509404421.58,9988,7.63,72360.0,-16.05,-17.83,-17.49,0,*54
1509404422.83,9989,7.63,72358.3,-16.05,-17.55,-17.49,0,*5E
1509404424.12,9990,7.63,72384.8,-16.01,-17.55,-17.97,0,*51
1509404425.38,9991,7.63,72402.3,-16.05,-19.03,-19.31,0,*5B
1509404426.61,9992,7.63,72380.0,-16.01,-20.43,-21.63,0,*5E
1509404427.84,9993,7.63,72390.0,-16.05,-22.63,-22.41,0,*58
1509404429.1,9994,7.63,72390.5,-16.05,-20.89,-19.81,0,*5D
1509404430.36,9995,7.63,72374.3,-16.01,-19.31,-18.69,0,*56
1509404431.62,9996,7.63,72356.8,-16.01,-18.83,-18.55,0,*52
1509404432.9,9997,7.63,72314.5,-16.05,-18.59,-18.01,0,*51
1509404434.17,9998,7.63,72330.3,-16.01,-18.01,-17.83,0,*52
1509404435.45,9999,7.63,72354.5,-16.01,-17.93,-17.93,0,*56
1509404436.7,10000,7.63,72346.8,-16.01,-17.83,-17.83,0,*67
1509404437.94,10001,7.63,72342.8,-15.99,-17.93,-18.07,0,*66
1509404439.17,10002,7.63,72344.0,-16.01,-18.11,-18.25,0,*62
1509404440.41,10003,7.63,72350.5,-16.01,-18.17,-18.69,0,*6D
1509404441.68,10004,7.69,72312.8,-16.01,-19.31,-19.37,0,*65
1509404442.91,10005,7.63,72334.0,-15.99,-19.17,-19.17,0,*60
1509404444.17,10006,7.69,72340.0,-16.01,-19.81,-20.09,0,*6B
1509404445.4,10007,7.63,72344.0,-15.99,-20.05,-19.61,0,*6A
1509404446.64,10008,7.63,72370.0,-16.05,-19.91,-20.09,0,*60
1509404447.91,10009,7.63,72394.0,-16.01,-20.09,-20.53,0,*61
1509404449.17,10010,7.63,72406.3,-15.99,-20.79,-21.97,0,*65
1509404450.39,10011,7.63,72398.3,-15.99,-22.27,-22.87,0,*6F
1509404451.6,10012,7.63,72376.8,-15.99,-22.83,-22.27,0,*68
1509404452.88,10013,7.63,72348.3,-16.01,-21.83,-20.89,0,*6E
1509404454.13,10014,7.63,72338.0,-16.01,-20.69,-20.39,0,*67
1509404455.37,10015,7.63,72342.0,-16.05,-20.43,-20.25,0,*67
1509404456.61,10016,7.63,72352.3,-16.01,-20.09,-19.95,0,*6F
1509404457.86,10017,7.63,72324.3,-16.01,-20.29,-20.15,0,*6E
1509404459.13,10018,7.63,72334.8,-16.01,-19.91,-20.15,0,*68
1509404460.4,10019,7.63,72340.5,-16.01,-20.43,-20.53,0,*6E
1509404461.65,10020,7.63,72340.3,-16.01,-20.59,-21.17,0,*6E
1509404462.95,10021,7.63,72340.3,-16.01,-21.23,-21.67,0,*64
1509404464.16,10022,7.63,72340.8,-15.99,-22.27,-21.63,0,*66
1509404465.43,10023,7.63,72340.3,-15.99,-20.99,-20.19,0,*6C
1509404466.67,10024,7.63,72352.3,-15.99,-19.41,-19.75,0,*64
1509404467.94,10025,7.63,72348.5,-16.05,-19.31,-19.51,0,*62
1509404469.24,10026,7.63,72360.5,-16.01,-19.23,-19.31,0,*60
1509404470.5,10027,7.63,72338.8,-16.01,-19.23,-19.51,0,*67
1509404471.75,10028,7.63,72338.3,-15.99,-19.27,-18.99,0,*6B
1509404472.97,10029,7.63,72348.8,-15.99,-18.69,-18.69,0,*6E
1509404474.24,10030,7.63,72372.8,-16.01,-18.73,-18.93,0,*6A
1509404475.52,10031,7.63,72374.0,-16.05,-19.31,-18.89,0,*63
1509404476.79,10032,7.63,72364.0,-16.01,-18.93,-18.45,0,*6D
1509404478.03,10033,7.63,72364.5,-16.01,-18.73,-18.41,0,*66
1509404479.29,10034,7.63,72378.8,-16.01,-18.55,-18.25,0,*67
1509404480.52,10035,7.63,72380.3,-16.01,-18.83,-18.25,0,*6D
1509404481.76,10036,7.63,72362.0,-16.01,-18.73,-18.17,0,*60
1509404483.03,10037,7.63,72358.5,-16.05,-18.55,-18.11,0,*67
1509404484.32,10038,7.63,72324.5,-16.01,-18.31,-18.01,0,*6F
1509404485.61,10039,7.63,72320.0,-16.05,-17.97,-17.93,0,*6D
1509404486.87,10040,7.63,72312.5,-16.05,-18.11,-18.01,0,*66
1509404488.11,10041,7.63,72366.5,-16.05,-18.11,-18.11,0,*66
1509404489.36,10042,7.63,72410.8,-16.07,-18.17,-17.97,0,*60
1509404490.6,10043,7.63,72404.5,-16.07,-17.73,-17.59,0,*6E
1509404491.86,10044,7.63,72318.8,-16.01,-17.69,-17.63,0,*6D
1509404493.15,10045,7.63,72342.5,-16.05,-17.79,-17.63,0,*69
1509404494.44,10046,7.63,72374.8,-16.05,-17.41,-17.25,0,*63
1509404495.7,10047,7.63,72424.3,-16.05,-17.35,-17.25,0,*61
1509404496.99,10048,7.63,72334.5,-16.05,-17.41,-17.41,0,*6F
1509404498.25,10049,7.63,72198.3,-16.05,-17.79,-17.69,0,*6F
1509404499.49,10050,7.63,72172.8,-16.05,-17.83,-17.69,0,*62
1509404500.71,10051,7.63,72240.3,-16.07,-17.73,-17.73,0,*65
1509404501.93,10052,7.63,72316.8,-16.07,-17.83,-17.83,0,*66
1509404503.17,10053,7.63,72334.5,-16.07,-17.69,-17.59,0,*64
1509404504.47,10054,7.63,72352.3,-16.05,-17.41,-17.41,0,*62
1509404505.71,10055,7.63,72366.5,-16.05,-17.49,-17.35,0,*68
1509404507.0,10056,7.63,72396.3,-16.05,-17.25,-17.25,0,*60
1509404508.27,10057,7.63,72404.8,-16.05,-17.41,-17.35,0,*62
1509404509.54,10058,7.63,72406.3,-16.05,-17.49,-17.41,0,*66
1509404510.78,10059,7.63,72384.5,-16.05,-17.49,-17.49,0,*6F
1509404512.07,10060,7.63,72374.3,-16.05,-17.41,-17.41,0,*65
1509404513.34,10061,7.63,72388.0,-16.05,-17.41,-17.35,0,*67
1509404514.63,10062,7.63,72388.5,-16.05,-17.25,-17.11,0,*60
1509404515.92,10063,7.63,72404.8,-16.05,-17.25,-17.21,0,*62
1509404517.19,10064,7.63,72384.0,-16.01,-17.35,-17.11,0,*63
1509404518.46,10065,7.63,72396.3,-16.05,-17.35,-17.25,0,*61
1509404519.71,10066,7.63,72354.5,-16.05,-17.35,-17.35,0,*63
1509404521.0,10067,7.63,72376.3,-16.05,-17.25,-17.41,0,*60
1509404522.28,10068,7.63,72368.5,-16.05,-17.25,-17.25,0,*6D
1509404523.57,10069,7.63,72362.0,-16.05,-17.11,-17.11,0,*6C
1509404524.86,10070,7.63,72376.5,-16.05,-17.11,-17.11,0,*64
1509404526.15,10071,7.63,72382.3,-16.01,-17.11,-17.07,0,*66
1509404527.45,10072,7.63,72384.3,-16.01,-17.25,-17.25,0,*62
1509404528.74,10073,7.63,72378.3,-16.01,-17.41,-17.41,0,*63
1509404530.01,10074,7.63,72376.0,-16.05,-17.41,-17.49,0,*68
1509404531.27,10075,7.63,72372.5,-16.01,-17.35,-17.25,0,*64
1509404532.57,10076,7.63,72392.3,-16.05,-17.11,-17.07,0,*65
1509404533.87,10077,7.63,72418.3,-16.01,-17.07,-17.07,0,*67
1509404535.11,10078,7.63,72432.5,-16.01,-16.97,-16.97,0,*68
1509404536.38,10079,7.63,72428.8,-16.01,-17.07,-16.97,0,*61
1509404537.62,10080,7.63,72424.5,-16.01,-16.97,-16.97,0,*6F
1509404538.86,10081,7.63,72430.8,-16.01,-16.97,-16.97,0,*6E
1509404540.09,10082,7.63,72432.8,-15.99,-17.03,-16.93,0,*67
1509404541.33,10083,7.63,72440.0,-15.99,-17.03,-16.93,0,*66
1509404542.54,10084,7.63,72438.5,-15.99,-16.93,-16.93,0,*69
1509404543.81,10085,7.63,72438.3,-15.99,-17.03,-17.03,0,*68
1509404545.09,10086,7.63,72424.3,-15.99,-17.07,-17.07,0,*6B
1509404546.36,10087,7.63,72412.3,-15.99,-17.07,-17.17,0,*6B
1509404547.62,10088,7.63,72434.5,-15.97,-17.07,-16.93,0,*67
1509404548.83,10089,7.63,72408.8,-15.99,-16.93,-16.93,0,*64
1509404550.07,10090,7.63,72406.3,-15.99,-17.03,-16.93,0,*64
1509404551.36,10091,7.63,72400.5,-15.97,-17.03,-17.03,0,*63
1509404552.66,10092,7.63,72400.3,-15.97,-17.03,-17.03,0,*60
1509404553.9,10093,7.63,72396.3,-15.99,-17.21,-17.49,0,*61
1509404555.17,10094,7.63,72356.5,-15.97,-18.07,-18.35,0,*67
1509404556.46,10095,7.63,72364.0,-15.97,-18.35,-18.55,0,*61
1509404557.7,10096,7.63,72332.3,-15.97,-18.69,-18.65,0,*68
1509404558.94,10097,7.63,72354.3,-15.97,-18.21,-18.21,0,*65
1509404560.18,10098,7.63,72320.0,-15.97,-18.41,-18.41,0,*6A
1509404561.42,10099,7.63,72340.0,-15.97,-18.21,-18.07,0,*6F
1509404562.66,10100,7.63,72386.5,-15.97,-17.87,-17.73,0,*61
1509404563.93,10101,7.63,72414.0,-15.95,-17.55,-17.45,0,*68
1509404565.18,10102,7.63,72418.8,-15.97,-17.49,-17.35,0,*63
1509404566.42,10103,7.63,72420.0,-15.97,-17.35,-17.31,0,*6D
1509404567.72,10104,7.63,72420.0,-15.97,-17.17,-17.07,0,*6F
1509404568.99,10105,7.63,72404.5,-15.95,-17.03,-17.03,0,*6D
1509404570.26,10106,7.63,72422.5,-15.95,-17.25,-17.03,0,*6A
1509404571.56,10107,7.63,72416.3,-15.97,-17.03,-17.03,0,*6D
1509404572.83,10108,7.63,72410.3,-15.95,-17.17,-17.03,0,*65
1509404574.1,10109,7.63,72420.3,-15.95,-17.17,-17.03,0,*64
1509404575.32,10110,7.63,72428.8,-15.95,-16.89,-16.89,0,*69
1509404576.53,10111,7.63,72424.0,-15.95,-16.97,-16.89,0,*67
1509404577.75,10112,7.63,72408.0,-15.95,-16.89,-16.97,0,*64
1509404578.99,10113,7.63,72414.3,-15.95,-17.03,-16.89,0,*69
1509404580.23,10114,7.63,72408.3,-15.95,-17.03,-16.89,0,*6E
1509404581.49,10115,7.63,72414.5,-15.93,-17.11,-16.97,0,*65
1509404582.76,10116,7.63,72416.8,-15.93,-17.03,-16.97,0,*65
1509404584.06,10117,7.63,72372.3,-15.93,-17.03,-17.17,0,*6D
1509404585.33,10118,7.63,72392.0,-15.95,-17.25,-17.45,0,*67
1509404586.54,10119,7.63,72388.0,-15.95,-17.31,-17.69,0,*6D
1509404587.8,10120,7.63,72432.8,-15.93,-17.31,-17.55,0,*6E
1509404589.05,10121,7.63,72448.3,-15.95,-17.69,-17.59,0,*68
1509404590.26,10122,7.63,72396.3,-15.95,-17.73,-17.73,0,*68
1509404591.48,10123,7.63,72374.8,-15.95,-17.73,-17.69,0,*62
1509404592.75,10124,7.63,72360.5,-15.95,-17.45,-17.41,0,*6A
1509404594.02,10125,7.63,72378.3,-15.95,-17.25,-17.41,0,*6D
1509404595.29,10126,7.63,72348.8,-15.95,-17.55,-17.41,0,*69
1509404596.52,10127,7.63,72308.8,-15.95,-17.31,-17.17,0,*69
1509404597.79,10128,7.63,72326.8,-15.93,-17.31,-17.11,0,*66
1509404599.05,10129,7.63,72322.8,-15.95,-17.11,-17.17,0,*65
1509404600.32,10130,7.63,72332.0,-15.93,-17.17,-17.31,0,*69
1509404601.59,10131,7.63,72362.5,-15.93,-17.31,-17.45,0,*6F
1509404602.85,10132,7.63,72388.3,-15.93,-17.55,-17.31,0,*6D
1509404604.15,10133,7.63,72384.3,-15.93,-17.17,-17.03,0,*6B
1509404605.45,10134,7.63,72358.3,-15.93,-17.17,-17.11,0,*6F
1509404606.74,10135,7.63,72376.0,-15.93,-17.11,-17.11,0,*68
1509404608.04,10136,7.63,72366.3,-15.93,-17.11,-17.11,0,*6B
1509404609.28,10137,7.63,72384.3,-15.95,-17.03,-16.97,0,*60
1509404610.54,10138,7.63,72402.8,-15.93,-17.11,-16.97,0,*6A
1509404611.81,10139,7.63,72408.3,-15.95,-17.03,-17.11,0,*61
1509404613.1,10140,7.63,72392.0,-15.93,-17.11,-17.17,0,*6C
1509404614.4,10141,7.63,72414.8,-15.93,-17.03,-17.11,0,*68
1509404615.7,10142,7.63,72424.8,-15.93,-17.17,-17.17,0,*68
1509404616.96,10143,7.63,72440.8,-15.93,-17.31,-17.41,0,*6E
1509404618.23,10144,7.63,72448.0,-15.93,-17.45,-17.73,0,*6B
1509404619.5,10145,7.63,72422.0,-15.93,-17.69,-17.59,0,*6C
1509404620.77,10146,7.63,72374.3,-15.93,-17.73,-17.55,0,*68
1509404622.01,10147,7.63,72366.8,-15.91,-17.49,-17.25,0,*65
1509404623.28,10148,7.63,72396.3,-15.91,-17.11,-17.07,0,*67
1509404624.5,10149,7.63,72390.0,-15.91,-16.97,-16.97,0,*61
1509404625.74,10150,7.63,72382.0,-15.91,-17.07,-16.97,0,*61
1509404626.97,10151,7.63,72402.0,-15.89,-16.97,-16.93,0,*65
1509404628.19,10152,7.63,72428.8,-15.91,-16.97,-16.97,0,*6B
1509404629.45,10153,7.63,72418.0,-15.91,-17.11,-17.11,0,*6A
1509404630.72,10154,7.63,72408.8,-15.91,-17.11,-17.21,0,*6E
1509404631.96,10155,7.63,72412.8,-15.91,-17.25,-17.49,0,*66
1509404633.22,10156,7.63,72428.3,-15.91,-17.63,-17.63,0,*6F
1509404634.44,10157,7.63,72432.8,-15.91,-17.87,-17.87,0,*6E
1509404635.66,10158,7.63,72408.3,-15.91,-18.11,-17.69,0,*61
1509404636.92,10159,7.63,72418.3,-15.91,-17.79,-17.55,0,*6E
1509404638.16,10160,7.63,72420.5,-15.91,-17.55,-17.49,0,*67
1509404639.45,10161,7.63,72398.0,-15.89,-17.55,-17.63,0,*67
1509404640.69,10162,7.63,72406.0,-15.93,-17.69,-17.69,0,*6A
1509404641.95,10163,7.63,72386.3,-15.91,-17.63,-17.79,0,*62
1509404643.2,10164,7.63,72408.8,-15.91,-18.01,-17.83,0,*6B
1509404644.42,10165,7.63,72400.0,-15.91,-18.11,-17.87,0,*6F
1509404645.66,10166,7.63,72390.8,-15.91,-17.83,-17.63,0,*62
1509404646.88,10167,7.63,72404.0,-15.91,-17.69,-17.69,0,*6D
1509404648.12,10168,7.63,72408.0,-15.91,-17.87,-17.97,0,*63
1509404649.37,10169,7.63,72362.8,-15.91,-18.11,-17.97,0,*62
1509404650.59,10170,7.63,72352.0,-15.91,-18.11,-17.87,0,*6B
1509404651.81,10171,7.63,72294.3,-15.91,-17.83,-17.69,0,*6E
1509404653.04,10172,7.63,72334.5,-15.93,-17.73,-17.73,0,*6B
1509404654.29,10173,7.63,72300.3,-15.95,-17.69,-17.59,0,*6F
1509404655.53,10174,7.63,72270.5,-15.93,-17.69,-17.69,0,*6D
1509404656.83,10175,7.63,72304.5,-15.93,-17.45,-17.45,0,*6C
1509404658.12,10176,7.63,72340.3,-15.93,-17.59,-17.59,0,*6F
1509404659.42,10177,7.63,72358.5,-15.93,-17.59,-17.55,0,*62
1509404660.69,10178,7.63,72362.0,-15.95,-17.45,-17.59,0,*6A
1509404661.94,10179,7.63,72366.3,-15.93,-17.83,-18.07,0,*63
1509404663.18,10180,7.63,72392.5,-15.95,-18.31,-18.49,0,*6F
1509404664.45,10181,7.63,72382.5,-15.93,-18.73,-18.35,0,*65
1509404665.7,10182,7.63,72380.8,-15.93,-18.21,-17.87,0,*67
1509404666.97,10183,7.63,72374.5,-15.93,-17.83,-17.55,0,*6E
1509404668.26,10184,7.63,72402.3,-15.93,-17.59,-17.41,0,*6B
1509404669.56,10185,7.63,72384.8,-15.93,-17.59,-17.55,0,*6F
1509404670.82,10186,7.63,72406.8,-15.93,-18.01,-17.73,0,*6A
1509404672.03,10187,7.63,72400.8,-15.91,-18.25,-18.25,0,*63
1509404673.28,10188,7.63,72366.5,-15.93,-18.83,-19.13,0,*66
1509404674.52,10189,7.63,72392.3,-15.93,-19.07,-19.51,0,*6C
1509404675.74,10190,7.63,72392.8,-15.91,-19.75,-19.95,0,*6B
1509404677.0,10191,7.63,72372.3,-15.93,-20.05,-19.23,0,*68
1509404678.26,10192,7.63,72394.5,-15.93,-19.37,-18.59,0,*6C
1509404679.5,10193,7.63,72374.0,-15.95,-18.73,-17.93,0,*63
1509404680.75,10194,7.63,72392.3,-15.93,-18.07,-17.69,0,*64
1509404681.99,10195,7.63,72378.5,-15.93,-17.87,-17.69,0,*62
1509404683.23,10196,7.63,72370.8,-15.95,-17.59,-17.31,0,*69
1509404684.52,10197,7.63,72364.8,-15.93,-17.55,-17.41,0,*65
1509404685.81,10198,7.63,72362.3,-15.93,-17.59,-17.55,0,*63
1509404687.08,10199,7.63,72364.0,-15.95,-17.59,-17.45,0,*65
1509404688.35,10200,7.63,72366.8,-15.93,-17.45,-17.31,0,*6E
1509404689.62,10201,7.63,72356.8,-15.95,-17.45,-17.41,0,*6E
1509404690.83,10202,7.63,72340.3,-15.95,-17.31,-17.31,0,*69
1509404692.13,10203,7.63,72398.8,-15.93,-17.25,-17.17,0,*6F
1509404693.42,10204,7.63,72396.3,-15.93,-17.17,-17.25,0,*68
1509404694.69,10205,7.63,72404.3,-15.95,-17.17,-17.25,0,*6F
1509404695.99,10206,7.63,72392.3,-15.93,-17.11,-17.03,0,*68
1509404697.28,10207,7.63,72392.5,-15.93,-17.03,-17.11,0,*69
1509404698.55,10208,7.63,72392.8,-15.95,-17.11,-17.11,0,*63
1509404699.84,10209,7.63,72392.3,-15.93,-17.11,-17.03,0,*67
1509404701.11,10210,7.63,72412.8,-15.95,-17.11,-17.03,0,*69
1509404702.4,10211,7.63,72402.3,-15.93,-17.11,-17.11,0,*6D
1509404703.67,10212,7.63,72380.3,-15.95,-17.17,-17.17,0,*68
1509404704.97,10213,7.63,72376.5,-15.93,-17.17,-17.03,0,*6A
1509404706.21,10214,7.63,72414.8,-15.93,-16.97,-16.89,0,*67
1509404707.45,10215,7.63,72384.8,-15.93,-16.97,-16.89,0,*66
1509404708.72,10216,7.63,72388.3,-15.93,-17.03,-16.97,0,*66
1509404709.99,10217,7.63,72360.0,-15.95,-17.03,-17.03,0,*6D
1509404711.21,10218,7.63,72368.8,-15.95,-16.97,-16.97,0,*62
1509404712.5,10219,7.63,72356.8,-15.93,-17.11,-17.03,0,*66
1509404713.77,10220,7.63,72370.8,-15.93,-17.03,-16.97,0,*63
1509404715.04,10221,7.63,72380.3,-15.93,-17.03,-16.97,0,*62
1509404716.31,10222,7.63,72360.8,-15.93,-17.03,-16.97,0,*61
1509404717.6,10223,7.63,72376.0,-15.93,-17.11,-17.03,0,*6F
1509404718.84,10224,7.63,72394.3,-15.95,-17.03,-16.97,0,*61
1509404720.06,10225,7.63,72388.3,-15.91,-16.93,-16.83,0,*69
1509404721.27,10226,7.63,72380.3,-15.91,-16.97,-16.83,0,*6E
1509404722.49,10227,7.63,72376.0,-15.91,-16.93,-16.83,0,*6B
1509404723.7,10228,7.63,72378.5,-15.91,-16.93,-16.93,0,*65
1509404724.91,10229,7.63,72380.5,-15.91,-16.93,-16.83,0,*65
1509404726.16,10230,7.63,72380.3,-15.93,-16.89,-16.97,0,*61
1509404727.38,10231,7.63,72366.5,-15.91,-16.83,-16.83,0,*6D
1509404728.62,10232,7.63,72374.8,-15.89,-16.83,-16.83,0,*67
1509404729.86,10233,7.63,72370.5,-15.89,-16.83,-16.83,0,*66
1509404731.07,10234,7.63,72380.3,-15.91,-16.83,-16.93,0,*69
1509404732.31,10235,7.63,72382.3,-15.89,-16.79,-16.83,0,*65
1509404733.53,10236,7.63,72352.0,-15.91,-16.79,-16.83,0,*6F
1509404734.78,10237,7.63,72362.8,-15.89,-16.83,-16.83,0,*62
1509404736.02,10238,7.63,72356.3,-15.89,-16.83,-16.83,0,*6D
1509404737.26,10239,7.63,72350.3,-15.89,-16.83,-16.83,0,*6C
1509404738.5,10240,7.63,72376.5,-15.89,-16.83,-16.83,0,*62
1509404739.74,10241,7.63,72422.3,-15.89,-16.79,-16.79,0,*63
1509404740.96,10242,7.63,72426.3,-15.91,-16.75,-16.79,0,*65
1509404742.18,10243,7.63,72400.0,-15.91,-16.75,-16.75,0,*68
1509404743.43,10244,7.63,72422.5,-15.89,-16.75,-16.75,0,*66
1509404744.68,10245,7.63,72416.8,-15.91,-16.65,-16.79,0,*63
1509404745.95,10246,7.63,72408.5,-15.89,-16.65,-16.75,0,*65
1509404747.19,10247,7.63,72410.3,-15.89,-16.75,-16.79,0,*69
1509404748.43,10248,7.63,72404.8,-15.89,-16.79,-16.75,0,*66
1509404749.67,10249,7.63,72406.0,-15.89,-16.79,-16.79,0,*6B
1509404750.92,10250,7.63,72404.3,-15.89,-16.75,-16.75,0,*63
1509404752.19,10251,7.63,72446.3,-15.85,-16.75,-16.69,0,*63
1509404753.44,10252,7.63,72404.3,-15.85,-16.75,-16.79,0,*61
1509404754.69,10253,7.63,72390.8,-15.85,-16.79,-16.79,0,*6C
1509404755.94,10254,7.63,72404.5,-15.85,-16.79,-16.79,0,*6B
1509404757.19,10255,7.63,72424.5,-15.85,-16.79,-16.75,0,*66
1509404758.43,10256,7.63,72450.5,-15.85,-16.89,-16.79,0,*66
1509404759.69,10257,7.63,72444.5,-15.85,-16.79,-16.75,0,*64
1509404760.94,10258,7.63,72404.0,-15.85,-16.75,-16.75,0,*67
1509404762.18,10259,7.63,72334.8,-15.85,-16.89,-16.79,0,*69
1509404763.43,10260,7.63,72292.8,-15.85,-16.75,-16.79,0,*60
1509404764.71,10261,7.63,72328.3,-15.85,-16.79,-16.69,0,*6C
1509404765.95,10262,7.63,72334.3,-15.89,-16.83,-16.79,0,*67
1509404767.2,10263,7.63,72362.3,-15.85,-16.89,-16.75,0,*6C
1509404768.45,10264,7.63,72358.3,-15.85,-16.79,-16.75,0,*64
1509404769.7,10265,7.63,72354.0,-15.85,-16.75,-16.75,0,*69
1509404770.95,10266,7.63,72314.8,-15.85,-16.75,-16.75,0,*6A
1509404772.25,10267,7.63,72272.5,-15.85,-16.69,-16.69,0,*6B
1509404773.52,10268,7.63,72294.8,-15.85,-16.79,-16.69,0,*65
1509404774.74,10269,7.63,72310.0,-15.83,-16.75,-16.75,0,*63
1509404775.99,10270,7.63,72348.8,-15.85,-16.75,-16.59,0,*63
1509404777.25,10271,7.63,72334.8,-15.85,-16.75,-16.59,0,*62
1509404778.49,10272,7.63,72344.0,-15.83,-16.75,-16.69,0,*64
1509404779.71,10273,7.63,72350.5,-15.83,-16.55,-16.59,0,*64
1509404780.97,10274,7.63,72350.5,-15.85,-16.75,-16.59,0,*67
1509404782.23,10275,7.63,72334.5,-15.83,-16.69,-16.69,0,*6E
1509404783.48,10276,7.63,72352.5,-15.83,-16.69,-16.75,0,*60
1509404784.7,10277,7.63,72370.5,-15.83,-16.75,-16.75,0,*6C
1509404785.92,10278,7.63,72364.3,-15.83,-16.75,-16.75,0,*63
1509404787.15,10279,7.63,72370.8,-15.83,-16.79,-16.75,0,*6E
1509404788.4,10280,7.63,72366.8,-15.85,-16.79,-16.75,0,*6E
1509404789.62,10281,7.63,72372.5,-15.83,-16.79,-16.75,0,*69
1509404790.84,10282,7.63,72356.8,-15.83,-16.79,-16.75,0,*6A
1509404792.09,10283,7.63,72370.0,-15.85,-16.79,-16.75,0,*6D
1509404793.31,10284,7.63,72382.8,-15.83,-16.79,-16.79,0,*60
1509404794.53,10285,7.63,72376.5,-15.83,-16.75,-16.75,0,*61
1509404795.77,10286,7.63,72390.5,-15.83,-16.75,-16.69,0,*6F
1509404797.02,10287,7.63,72394.5,-15.83,-16.69,-16.75,0,*6E
1509404798.26,10288,7.63,72410.0,-15.83,-16.75,-16.69,0,*61
1509404799.5,10289,7.63,72346.0,-15.83,-16.75,-16.69,0,*60
1509404800.75,10290,7.63,72358.3,-15.83,-16.75,-16.69,0,*68
1509404801.97,10291,7.63,72316.3,-15.83,-16.79,-16.75,0,*68
1509404803.24,10292,7.63,72336.0,-15.81,-16.83,-16.69,0,*61
1509404804.53,10293,7.63,72342.8,-15.81,-16.65,-16.69,0,*68
1509404805.82,10294,7.63,72362.0,-15.81,-16.69,-16.69,0,*63
1509404807.12,10295,7.63,72364.5,-15.81,-16.69,-16.69,0,*62
1509404808.41,10296,7.63,72334.5,-15.77,-16.65,-16.65,0,*68
1509404809.71,10297,7.63,72336.8,-15.81,-16.69,-16.69,0,*60
1509404810.97,10298,7.63,72360.3,-15.81,-16.75,-16.69,0,*62
1509404812.27,10299,7.63,72344.5,-15.77,-16.69,-16.69,0,*67
1509404813.52,10300,7.63,72368.0,-15.81,-16.75,-16.75,0,*6F
1509404814.81,10301,7.63,72366.3,-15.77,-16.69,-16.69,0,*67
1509404816.06,10302,7.63,72362.5,-15.81,-16.75,-16.75,0,*6D
1509404817.33,10303,7.63,72374.3,-15.77,-16.79,-16.69,0,*64
1509404818.62,10304,7.63,72372.5,-15.77,-16.69,-16.69,0,*62
1509404819.87,10305,7.63,72312.0,-15.81,-16.83,-16.75,0,*63
1509404821.12,10306,7.63,72370.3,-15.81,-16.75,-16.75,0,*69
1509404822.41,10307,7.63,72390.8,-15.77,-16.69,-16.69,0,*61
1509404823.71,10308,7.63,72400.3,-15.77,-16.69,-16.69,0,*6E
1509404824.97,10309,7.63,72410.0,-15.81,-16.75,-16.69,0,*6B
1509404826.27,10310,7.63,72424.5,-15.77,-16.69,-16.69,0,*67
1509404827.52,10311,7.63,72434.0,-15.81,-16.75,-16.75,0,*6F
1509404828.77,10312,7.63,72428.5,-15.81,-16.83,-16.75,0,*65
1509404830.01,10313,7.63,72434.5,-15.81,-16.75,-16.75,0,*6D
1509404831.31,10314,7.63,72434.5,-15.77,-16.69,-16.69,0,*63
1509404832.6,10315,7.63,72432.5,-15.77,-16.69,-16.69,0,*62
1509404833.87,10316,7.63,72432.3,-15.77,-16.79,-16.69,0,*60
1509404835.16,10317,7.63,72418.0,-15.77,-16.69,-16.69,0,*60
1509404836.41,10318,7.63,72318.0,-15.81,-16.89,-16.83,0,*6C
1509404837.65,10319,7.63,72326.3,-15.81,-16.83,-16.89,0,*6D
1509404838.89,10320,7.63,72312.0,-15.81,-16.83,-16.75,0,*64
1509404840.14,10321,7.63,72324.0,-15.81,-16.75,-16.83,0,*65
1509404841.39,10322,7.63,72324.8,-15.81,-16.75,-16.75,0,*6F
1509404842.64,10323,7.63,72324.8,-15.81,-16.75,-16.75,0,*6E
1509404843.93,10324,7.63,72318.5,-15.77,-16.69,-16.65,0,*6C
1509404845.2,10325,7.63,72326.3,-15.81,-16.75,-16.69,0,*65
1509404846.47,10326,7.63,72344.8,-15.81,-16.75,-16.65,0,*6A
1509404847.76,10327,7.63,72324.0,-15.81,-16.69,-16.69,0,*6A
1509404849.06,10328,7.63,72336.3,-15.77,-16.69,-16.65,0,*60
1509404850.32,10329,7.63,72348.5,-15.81,-16.75,-16.69,0,*69
1509404851.62,10330,7.63,72366.5,-15.77,-16.69,-16.51,0,*6E
1509404852.86,10331,7.63,72386.3,-15.75,-16.65,-16.59,0,*69
1509404854.15,10332,7.63,72408.0,-15.77,-16.51,-16.51,0,*67
1509404855.41,10333,7.63,72406.8,-15.77,-16.51,-16.45,0,*63
1509404856.7,10334,7.63,72410.8,-15.73,-16.51,-16.51,0,*65
1509404857.94,10335,7.63,72416.8,-15.75,-16.51,-16.59,0,*6A
1509404859.24,10336,7.63,72410.5,-15.81,-16.65,-16.69,0,*66
1509404860.51,10337,7.63,72422.8,-15.77,-16.59,-16.65,0,*6D
1509404861.72,10338,7.63,72400.3,-15.75,-16.79,-16.93,0,*6B
1509404862.96,10339,7.63,72426.3,-15.75,-17.11,-17.35,0,*68
1509404864.24,10340,7.63,72426.5,-15.75,-17.25,-17.07,0,*60
1509404865.51,10341,7.63,72428.5,-15.75,-17.11,-17.07,0,*66
1509404866.77,10342,7.63,72416.0,-15.75,-17.21,-17.25,0,*66
1509404868.05,10343,7.63,72380.3,-15.73,-17.35,-17.07,0,*64
1509404869.29,10344,7.63,72354.8,-15.75,-17.11,-16.93,0,*6F
1509404870.55,10345,7.63,72358.5,-15.77,-17.07,-16.93,0,*6B
1509404871.81,10346,7.63,72360.3,-15.77,-17.07,-16.93,0,*68
1509404873.06,10347,7.63,72354.5,-15.77,-16.97,-16.83,0,*60
1509404874.3,10348,7.63,72320.8,-15.77,-16.93,-16.79,0,*6E
1509404875.54,10349,7.63,72270.0,-15.77,-16.83,-16.79,0,*6E
1509404876.78,10350,7.63,72232.3,-15.77,-16.93,-16.83,0,*62
1509404878.03,10351,7.63,72240.0,-15.77,-16.97,-16.83,0,*67
1509404879.24,10352,7.63,72298.8,-15.75,-16.83,-16.83,0,*63
1509404880.46,10353,7.63,72322.8,-15.75,-16.83,-16.93,0,*63
1509404881.76,10354,7.63,72330.8,-15.77,-17.07,-17.07,0,*67
1509404883.05,10355,7.63,72310.5,-15.77,-17.07,-17.21,0,*62
1509404884.3,10356,7.63,72346.3,-15.77,-17.35,-17.49,0,*6E
1509404885.56,10357,7.63,72332.0,-15.75,-17.55,-18.31,0,*6B
1509404886.79,10358,7.63,72370.3,-15.75,-19.07,-20.63,0,*61
1509404888.03,10359,7.63,72388.3,-15.75,-22.47,-24.05,0,*68
1509404889.27,10360,7.63,72384.8,-15.75,-24.11,-22.63,0,*61
1509404890.58,10361,7.63,72378.0,-15.77,-22.17,-21.23,0,*65
1509404891.87,10362,7.63,72332.5,-15.77,-21.03,-20.35,0,*66
1509404893.1,10363,7.63,72338.0,-15.81,-20.05,-19.75,0,*67
1509404894.35,10364,7.63,72364.0,-15.81,-19.71,-19.51,0,*6F
1509404895.59,10365,7.63,72394.8,-15.77,-19.17,-19.37,0,*67
1509404896.86,10366,7.63,72372.5,-15.81,-20.29,-20.99,0,*64
1509404898.12,10367,7.63,72338.8,-15.77,-21.17,-20.79,0,*6E
1509404899.36,10368,7.63,72346.5,-15.81,-19.91,-20.29,0,*68
1509404900.63,10369,7.63,72336.3,-15.83,-20.49,-20.53,0,*69
1509404901.88,10370,7.63,72342.5,-15.83,-21.93,-23.19,0,*6A
1509404903.12,10371,7.63,72364.3,-15.83,-25.35,-25.75,0,*6F